EW9032 Weather Reports


time (UTC)temp
F
wind
direction
speed
knots
gust
knots
rain 1hr
in
rain 24hr
in
rain mn
in
humidity
%
barometer
mb
20260507170204 63 75 0.9 2.6 0.00 0.00 0.00 22 1009.6
20260507165704 63 119 0.9 4.3 0.00 0.00 0.00 22 1009.6
20260507165204 62 159 1.7 4.3 0.00 0.00 0.00 23 1009.7
20260507164204 61 265 1.7 6.1 0.00 0.00 0.00 23 1009.8
20260507163705 60 218 0.9 2.6 0.00 0.00 0.00 23 1009.9
20260507163205 60 209 0.9 4.3 0.00 0.00 0.00 23 1009.9
20260507162705 60 211 2.6 5.2 0.00 0.00 0.00 23 1010.0
20260507162204 60 201 1.7 5.2 0.00 0.00 0.00 23 1010.1
20260507161704 60 197 0.9 2.6 0.00 0.00 0.00 24 1010.0
20260507161205 59 198 2.6 5.2 0.00 0.00 0.00 24 1010.1
20260507160705 60 178 1.7 5.2 0.00 0.00 0.00 23 1010.2
20260507160204 59 181 1.7 2.6 0.00 0.00 0.00 24 1010.2
20260507155704 59 213 1.7 2.6 0.00 0.00 0.00 24 1010.3
20260507155204 58 269 0.9 2.6 0.00 0.00 0.00 24 1010.3
20260507153704 58 269 0.9 2.6 0.00 0.00 0.00 24 1010.3
20260507152704 57 260 0.9 2.6 0.00 0.00 0.00 25 1010.4
20260507152204 57 261 0.9 2.6 0.00 0.00 0.00 24 1010.4
20260507151705 57 261 1.7 2.6 0.00 0.00 0.00 26 1010.5
20260507151204 57 266 2.6 5.2 0.00 0.00 0.00 27 1010.5
20260507150704 57 275 1.7 2.6 0.00 0.00 0.00 27 1010.5
20260507145704 55 257 0.9 2.6 0.00 0.00 0.00 29 1010.6
20260507145204 54 257 1.7 2.6 0.00 0.00 0.00 29 1010.5
20260507144703 54 252 1.7 6.1 0.00 0.00 0.00 31 1010.5
20260507144204 53 247 1.7 6.1 0.00 0.00 0.00 32 1010.5
20260507143704 53 252 1.7 6.1 0.00 0.00 0.00 33 1010.5
20260507142704 51 216 4.3 7.0 0.00 0.00 0.00 35 1010.5
20260507141704 50 285 3.5 7.0 0.00 0.00 0.00 35 1010.5
20260507141204 50 271 4.3 7.0 0.00 0.00 0.00 36 1010.5
20260507140204 49 218 4.3 7.8 0.00 0.00 0.00 37 1010.2
20260507135704 48 214 4.3 7.8 0.00 0.00 0.00 38 1010.2
20260507135203 48 240 4.3 7.8 0.00 0.00 0.00 39 1010.2
20260507134703 48 225 5.2 10.4 0.00 0.00 0.00 39 1010.3
20260507134204 47 217 5.2 8.7 0.00 0.00 0.00 39 1010.2
20260507133704 47 227 4.3 8.7 0.00 0.00 0.00 40 1010.2
20260507133204 46 218 3.5 7.0 0.00 0.00 0.00 41 1010.1
20260507132704 46 225 3.5 7.0 0.00 0.00 0.00 41 1010.0
20260507132204 46 218 6.1 10.4 0.00 0.00 0.00 42 1009.9
20260507131704 45 213 6.1 10.4 0.00 0.00 0.00 42 1009.8
20260507131203 45 219 5.2 7.0 0.00 0.00 0.00 43 1009.8
20260507130704 44 220 5.2 7.8 0.00 0.00 0.00 43 1009.9
20260507130204 44 227 4.3 7.0 0.00 0.00 0.00 43 1009.8
20260507125704 44 217 6.1 10.4 0.00 0.00 0.00 42 1009.8
20260507125204 44 217 5.2 7.8 0.00 0.00 0.00 43 1009.8
20260507124703 43 234 2.6 8.7 0.00 0.00 0.00 43 1009.7
20260507122705 42 225 1.7 2.6 0.00 0.00 0.00 45 1009.6
20260507122204 43 225 1.7 2.6 0.00 0.00 0.00 43 1009.6
20260507121704 43 225 0.9 2.6 0.00 0.00 0.00 43 1009.5
20260507121203 44 225 0.0 2.6 0.00 0.00 0.00 42 1009.4
20260507120704 44 225 0.9 2.6 0.00 0.00 0.00 42 1009.3
20260507120203 44 225 1.7 4.3 0.00 0.00 0.00 42 1009.3
20260507115703 43 235 3.5 6.1 0.00 0.00 0.00 43 1009.2
20260507115204 42 210 3.5 7.0 0.00 0.00 0.00 44 1009.1
20260507114703 42 247 4.3 6.1 0.00 0.00 0.00 45 1009.2
20260507114204 42 215 0.9 2.6 0.00 0.00 0.00 45 1009.3
20260507113704 42 215 0.9 2.6 0.00 0.00 0.00 44 1009.3
20260507113204 43 216 0.9 2.6 0.00 0.00 0.00 43 1009.2
20260507112703 43 217 2.6 5.2 0.00 0.00 0.00 42 1009.1
20260507111704 43 220 2.6 4.3 0.00 0.00 0.00 42 1009.1
20260507110703 43 220 3.5 4.3 0.00 0.00 0.00 41 1009.1
20260507110204 43 223 1.7 5.2 0.00 0.00 0.00 41 1009.1
20260507105704 44 221 2.6 6.1 0.00 0.00 0.00 40 1009.1
20260507104704 43 216 4.3 5.2 0.00 0.00 0.00 40 1009.0
20260507104204 43 217 2.6 5.2 0.00 0.00 0.00 40 1009.0
20260507103704 43 218 4.3 6.1 0.00 0.00 0.00 40 1009.0
20260507103204 43 221 4.3 5.2 0.00 0.00 0.00 40 1009.0
20260507102704 43 220 3.5 5.2 0.00 0.00 0.00 39 1009.0
20260507101706 44 225 2.6 5.2 0.00 0.00 0.00 39 1009.1
20260507101205 44 215 4.3 6.1 0.00 0.00 0.00 39 1009.1
20260507100706 44 206 5.2 6.1 0.00 0.00 0.00 38 1009.1
20260507100206 44 212 4.3 7.0 0.00 0.00 0.00 38 1009.0
20260507095706 44 210 5.2 6.1 0.00 0.00 0.00 38 1009.0
20260507095205 44 248 2.6 4.3 0.00 0.00 0.00 38 1009.1
20260507094706 45 249 2.6 5.2 0.00 0.00 0.00 37 1009.0
20260507094205 45 214 3.5 7.0 0.00 0.00 0.00 36 1008.9
20260507093705 45 216 4.3 7.8 0.00 0.00 0.00 36 1008.9
20260507093205 45 221 5.2 8.7 0.00 0.00 0.00 36 1008.8
20260507092706 45 212 6.1 10.4 0.00 0.00 0.00 35 1008.7
20260507092206 46 220 6.1 7.8 0.00 0.00 0.00 35 1008.8
20260507091706 45 207 6.1 11.3 0.00 0.00 0.00 35 1008.9
20260507091205 45 204 6.1 10.4 0.00 0.00 0.00 35 1009.0
20260507090706 45 207 7.8 10.4 0.00 0.00 0.00 35 1009.1
20260507090205 45 213 7.0 10.4 0.00 0.00 0.00 36 1009.2
20260507085705 45 213 7.0 10.4 0.00 0.00 0.00 36 1009.2
20260507085206 44 212 6.1 10.4 0.00 0.00 0.00 36 1009.3
20260507084706 44 219 6.1 7.8 0.00 0.00 0.00 36 1009.4
20260507084206 44 217 5.2 7.8 0.00 0.00 0.00 37 1009.3
20260507083705 44 214 5.2 7.0 0.00 0.00 0.00 37 1009.3
20260507083205 44 213 4.3 6.1 0.00 0.00 0.00 37 1009.3
20260507082706 44 225 5.2 7.8 0.00 0.00 0.00 36 1009.4
20260507081706 44 217 5.2 7.8 0.00 0.00 0.00 37 1009.3
20260507081206 44 222 5.2 7.8 0.00 0.00 0.00 37 1009.3
20260507080706 44 213 2.6 2.6 0.00 0.00 0.00 37 1009.1
20260507080205 44 213 2.6 4.3 0.00 0.00 0.00 38 1009.3
20260507075706 44 212 2.6 4.3 0.00 0.00 0.00 38 1009.3
20260507074705 45 220 4.3 6.1 0.00 0.00 0.00 37 1009.5
20260507074205 45 218 4.3 5.2 0.00 0.00 0.00 36 1009.5
20260507073705 45 222 4.3 5.2 0.00 0.00 0.00 37 1009.5
20260507072705 45 214 4.3 5.2 0.00 0.00 0.00 37 1009.6
20260507072205 45 215 4.3 6.1 0.00 0.00 0.00 37 1009.7
20260507071705 45 216 4.3 7.0 0.00 0.00 0.00 37 1009.8
20260507071206 45 208 6.1 8.7 0.00 0.00 0.00 37 1009.8
20260507070205 45 214 5.2 8.7 0.00 0.00 0.00 38 1009.9
20260507065206 45 213 6.1 10.4 0.00 0.00 0.00 38 1010.0
20260507064705 45 203 7.0 10.4 0.00 0.00 0.00 37 1010.1
20260507064205 46 211 6.1 10.4 0.00 0.00 0.00 37 1010.1
20260507063705 46 207 7.8 11.3 0.00 0.00 0.00 36 1010.1
20260507063206 46 206 6.1 10.4 0.00 0.00 0.00 36 1010.2
20260507062705 46 212 6.1 10.4 0.00 0.00 0.00 36 1010.2
20260507061705 45 204 6.1 10.4 0.00 0.00 0.00 36 1010.4
20260507061205 46 211 7.8 10.4 0.00 0.00 0.00 36 1010.5
20260507060705 46 210 7.8 11.3 0.00 0.00 0.00 36 1010.6
20260507060205 46 219 7.0 10.4 0.00 0.00 0.00 35 1010.6
20260507055705 47 209 7.0 10.4 0.00 0.00 0.00 34 1010.6
20260507055206 48 202 6.1 10.4 0.00 0.00 0.00 34 1010.7
20260507054706 48 207 6.1 8.7 0.00 0.00 0.00 33 1010.6
20260507054205 48 205 5.2 7.8 0.00 0.00 0.00 33 1010.6
20260507053206 48 211 2.6 4.3 0.00 0.00 0.00 33 1010.8
20260507052705 48 211 1.7 2.6 0.00 0.00 0.00 34 1010.8
20260507052206 48 215 1.7 2.6 0.00 0.00 0.00 34 1010.8
20260507051705 48 216 1.7 5.2 0.00 0.00 0.00 33 1010.9
20260507051205 47 218 1.7 5.2 0.00 0.00 0.00 34 1010.9
20260507050705 46 239 2.6 4.3 0.00 0.00 0.00 35 1011.0
20260507045706 44 252 1.7 5.2 0.00 0.00 0.00 38 1011.1
20260507045205 43 260 0.0 0.9 0.00 0.00 0.00 38 1011.2
20260507044705 43 260 0.0 0.0 0.00 0.00 0.00 39 1011.4
20260507044205 44 260 0.0 0.9 0.00 0.00 0.00 38 1011.4
20260507043705 45 260 0.9 1.7 0.00 0.00 0.00 36 1011.5
20260507043205 47 260 0.9 1.7 0.00 0.00 0.00 34 1011.6
20260507042705 47 260 0.9 2.6 0.00 0.00 0.00 32 1011.6
20260507042206 47 260 0.9 1.7 0.00 0.00 0.00 33 1011.7
20260507041705 46 260 0.9 1.7 0.00 0.00 0.00 34 1011.7
20260507041205 46 260 0.9 2.6 0.00 0.00 0.00 34 1011.8
20260507040705 46 260 0.0 0.9 0.00 0.00 0.00 36 1011.8
20260507040205 47 260 0.0 0.9 0.00 0.00 0.00 35 1012.0
20260507035706 47 260 0.0 0.9 0.00 0.00 0.00 35 1012.0
20260507034705 47 260 0.9 1.7 0.00 0.00 0.00 32 1012.2
20260507034205 47 260 0.9 1.7 0.00 0.00 0.00 32 1012.3
20260507033705 47 260 0.9 2.6 0.00 0.00 0.00 32 1012.3
20260507032705 47 260 0.0 0.9 0.00 0.00 0.00 35 1012.3
20260507032206 47 260 0.0 0.9 0.00 0.00 0.00 35 1012.2
20260507031706 47 260 0.9 1.7 0.00 0.00 0.00 35 1012.3
20260507031205 48 260 0.0 0.9 0.00 0.00 0.00 34 1012.3
20260507030705 48 260 0.0 0.9 0.00 0.00 0.00 34 1012.2
20260507030205 48 260 0.0 0.9 0.00 0.00 0.00 34 1012.3
20260507025705 49 260 0.0 0.9 0.00 0.00 0.00 34 1012.3
20260507024705 50 260 0.0 0.0 0.00 0.00 0.00 32 1012.2
20260507024205 51 260 0.0 0.9 0.00 0.00 0.00 31 1012.2
20260507023705 51 260 0.0 0.9 0.00 0.00 0.00 29 1012.2
20260507023205 51 260 0.0 0.9 0.00 0.00 0.00 29 1012.2
20260507022705 52 260 0.0 0.9 0.00 0.00 0.00 28 1012.2
20260507022205 53 260 0.0 0.9 0.00 0.00 0.00 28 1012.1
20260507021705 53 260 0.0 0.9 0.00 0.00 0.00 27 1012.1
20260507021205 54 260 0.9 1.7 0.00 0.00 0.00 26 1012.2
20260507020705 54 260 1.7 2.6 0.00 0.00 0.00 24 1012.3
20260507020205 54 260 1.7 2.6 0.00 0.00 0.00 24 1012.3
20260507015705 55 260 1.7 2.6 0.00 0.00 0.00 24 1012.4
20260507015205 55 260 2.6 5.2 0.00 0.00 0.00 24 1012.4
20260507013205 57 273 4.3 8.7 0.00 0.00 0.00 22 1012.6
20260507012205 58 278 5.2 10.4 0.00 0.00 0.00 22 1012.6
20260507011705 58 254 5.2 11.3 0.00 0.00 0.00 22 1012.7
20260507011205 58 225 5.2 7.8 0.00 0.00 0.00 21 1012.7
20260507010705 58 246 4.3 10.4 0.00 0.00 0.00 21 1012.7
20260507010205 58 254 6.1 11.3 0.00 0.00 0.00 21 1012.7
20260507005705 58 278 4.3 10.4 0.00 0.00 0.00 22 1012.8
20260507005205 58 274 3.5 8.7 0.00 0.00 0.00 22 1012.9
20260507004704 58 222 3.5 10.4 0.00 0.00 0.00 22 1013.0
20260507004205 57 240 6.1 11.3 0.00 0.00 0.00 22 1013.0
20260507003205 57 260 5.2 12.2 0.00 0.00 0.00 22 1013.2
20260507002705 57 258 5.2 11.3 0.00 0.00 0.00 22 1013.3
20260507002205 57 278 7.8 14.8 0.00 0.00 0.00 22 1013.3
20260507001705 58 239 8.7 15.6 0.00 0.00 0.00 21 1013.4
20260507001205 58 278 5.2 13.9 0.00 0.00 0.00 21 1013.5
20260507000704 58 279 7.8 14.8 0.00 0.00 0.00 21 1013.6
20260507000205 58 222 7.8 12.2 0.00 0.00 0.00 22 1013.6
20260506235705 58 259 6.1 14.8 0.00 0.00 0.00 21 1013.7
20260506235205 58 244 8.7 13.0 0.00 0.00 0.00 21 1013.8
20260506234205 58 270 7.8 13.9 0.00 0.00 0.00 21 1013.9
20260506233705 58 285 7.8 15.6 0.00 0.00 0.00 20 1013.9
20260506233205 58 289 7.8 17.4 0.00 0.00 0.00 20 1013.9
20260506232205 58 223 9.6 13.9 0.00 0.00 0.00 20 1013.9
20260506231705 58 267 8.7 17.4 0.00 0.00 0.00 21 1014.0
20260506230705 58 273 7.0 11.3 0.00 0.00 0.00 20 1013.9
20260506230204 58 273 7.8 14.8 0.00 0.00 0.00 20 1014.1
20260506225205 58 246 7.8 13.0 0.00 0.00 0.00 21 1014.2
20260506224704 57 302 6.1 15.6 0.00 0.00 0.00 20 1014.2
20260506224205 58 290 7.8 17.4 0.00 0.00 0.00 21 1014.4
20260506223204 57 296 6.1 11.3 0.00 0.00 0.00 20 1014.7
20260506222705 57 267 7.8 17.4 0.00 0.00 0.00 20 1014.8
20260506222205 57 206 10.4 17.4 0.00 0.00 0.00 20 1014.8
20260506221705 57 301 8.7 14.8 0.00 0.00 0.00 20 1014.9
20260506221204 57 255 9.6 17.4 0.00 0.00 0.00 21 1015.1
20260506220704 56 228 11.3 19.1 0.00 0.00 0.00 21 1015.2
20260506220205 56 255 7.0 13.9 0.00 0.00 0.00 21 1015.3
20260506215705 57 263 8.7 14.8 0.00 0.00 0.00 21 1015.5
20260506215204 56 275 7.0 12.2 0.00 0.00 0.00 21 1015.6
20260506214704 56 234 5.2 10.4 0.00 0.00 0.00 21 1015.6
20260506214205 56 268 9.6 20.0 0.00 0.00 0.00 21 1015.9
20260506213704 56 250 6.1 12.2 0.00 0.00 0.00 21 1015.9
20260506212705 56 269 8.7 17.4 0.00 0.00 0.00 22 1016.1
20260506212204 55 254 5.2 14.8 0.00 0.00 0.00 22 1016.2
20260506211704 55 263 8.7 17.4 0.00 0.00 0.00 22 1016.4
20260506210705 55 246 8.7 13.0 0.00 0.00 0.00 24 1016.6
20260506210204 55 303 7.8 13.9 0.00 0.00 0.00 24 1016.6
20260506205705 54 215 10.4 19.1 0.00 0.00 0.00 24 1016.6
20260506204704 54 293 5.2 11.3 0.00 0.00 0.00 24 1016.9
20260506204205 54 257 8.7 19.1 0.00 0.00 0.00 24 1017.0
20260506203705 53 252 7.8 12.2 0.00 0.00 0.00 25 1017.0
20260506203205 53 233 9.6 17.4 0.00 0.00 0.00 25 1017.1
20260506201705 53 234 4.3 13.0 0.00 0.00 0.00 25 1017.3
20260506200705 53 219 8.7 15.6 0.00 0.00 0.00 25 1017.6
20260506200205 52 223 6.1 13.0 0.00 0.00 0.00 26 1017.4
20260506195204 53 231 7.0 11.3 0.00 0.00 0.00 26 1017.7
20260506194704 52 238 4.3 12.2 0.00 0.00 0.00 26 1017.8
20260506193704 52 224 4.3 13.9 0.00 0.00 0.00 26 1017.8
20260506193205 51 224 4.3 8.7 0.00 0.00 0.00 27 1017.9
20260506192705 51 220 5.2 10.4 0.00 0.00 0.00 27 1018.1
20260506192204 50 261 7.8 13.0 0.00 0.00 0.00 27 1018.2
20260506191704 51 226 7.8 13.9 0.00 0.00 0.00 27 1018.2
20260506191205 51 289 5.2 12.2 0.00 0.00 0.00 27 1018.2
20260506190705 51 299 5.2 12.2 0.00 0.00 0.00 26 1018.4
20260506185704 50 298 6.1 13.0 0.00 0.00 0.00 28 1018.5
20260506185204 50 218 6.1 15.6 0.00 0.00 0.00 28 1018.5
20260506184705 50 265 5.2 10.4 0.00 0.00 0.00 28 1018.6
20260506184204 50 271 7.8 11.3 0.00 0.00 0.00 28 1018.6
20260506183204 50 307 7.8 13.0 0.00 0.00 0.00 30 1018.9
20260506182705 49 258 7.0 13.9 0.00 0.00 0.00 30 1018.9
20260506182204 49 256 2.6 10.4 0.00 0.00 0.00 32 1019.0
20260506181704 48 203 7.8 11.3 0.00 0.00 0.00 32 1019.1
20260506181205 48 279 5.2 11.3 0.00 0.00 0.00 34 1019.1
20260506180705 48 248 6.1 13.0 0.00 0.00 0.00 33 1019.3
20260506180205 48 289 5.2 13.0 0.00 0.00 0.00 33 1019.4
20260506175704 48 259 8.7 14.8 0.00 0.00 0.00 34 1019.5
20260506175204 47 294 4.3 11.3 0.00 0.00 0.00 34 1019.5
20260506174705 47 213 6.1 12.2 0.00 0.00 0.00 34 1019.6
20260506174204 47 254 6.1 13.9 0.00 0.00 0.00 34 1019.7
20260506173704 47 281 4.3 12.2 0.00 0.00 0.00 36 1019.8
20260506173204 47 231 5.2 11.3 0.00 0.00 0.00 35 1019.9
20260506172704 47 293 4.3 13.0 0.00 0.00 0.00 35 1020.0
20260506172204 47 311 5.2 11.3 0.00 0.00 0.00 35 1020.0
20260506171704 46 298 5.2 10.4 0.00 0.00 0.00 36 1020.1
20260506170704 46 313 7.0 13.9 0.00 0.00 0.00 36 1020.2